[[{"header":{"parameterUnit":"m.s-1","parameterCategory":1,"la1":30.2991,"la2":30.254,"lo1":-89.0895,"lo2":-89.0444,"dy":0.0017,"dx":0.0017,"nx":28,"ny":28,"refTime":"2024-05-14T09:00:00:Z","depth":0,"parameterNumber":2,"parameterNumberName":"U-component_of_WINDS"},"data":[0,0,0,0,0,0,0,0,0,0,0,0,0,0,0,0,0,0,0,0,0,0,0,0,0,0,0,0,0,0,0,0,0,0,0,0,0,0,0,0,0,0,0,0,0,0,0,0,0,0,0,0,0,0,0,0,0,0,1.114,1.1141,0,1.1269,1.127,1.1272,1.1278,1.1276,1.1274,1.1273,1.141,1.1414,1.1419,0,0,0,0,0,0,0,0,0,0,0,0,0,1.0904,1.0909,1.114,1.1142,1.1143,1.1269,1.127,1.1272,1.1278,1.1276,1.1274,1.1272,1.1408,1.1414,1.142,0,0,0,0,0,0,0,0,0,0,0,0,0,1.1017,1.091,1.114,1.1161,1.1164,1.1268,1.1271,1.1273,1.1278,1.1276,1.1274,1.1271,1.1406,1.1413,1.1421,1.1514,0,0,1.1444,1.1447,0,0,0,0,0,0,0,0,1.1011,1.1026,1.1156,1.116,1.1163,1.1255,1.1237,1.1354,1.1279,1.1235,1.1273,1.127,1.136,1.1371,1.1401,1.152,1.1526,1.1445,1.1449,1.1453,1.1455,0,0,0,0,0,0,0,1.1003,1.1021,1.1191,1.1158,1.1163,1.1166,1.1179,1.126,1.1309,1.1239,1.1239,1.1254,1.1362,1.1393,1.1404,1.1528,1.1444,1.1451,1.1456,1.1459,1.1733,1.1736,0,0,0,0,0,0,1.099,1.1014,1.1187,1.1195,1.108,1.1172,1.1187,1.1228,1.1308,1.1318,1.1256,1.1254,1.1382,1.1395,1.1409,1.1525,1.1452,1.146,1.1464,1.173,1.1734,1.1737,0,0,0,0,0,0,1.0985,1.1006,1.1182,1.1105,1.1127,1.1179,1.1224,1.1232,1.1263,1.1321,1.1331,1.1279,1.138,1.1398,1.1488,1.1529,1.1463,1.147,1.1727,1.1731,1.1735,1.1756,0,0,0,0,0,0,1.0979,1.1004,1.1038,1.1105,1.1131,1.1257,1.1227,1.1236,1.1276,1.1274,1.1345,1.1355,1.138,1.1477,1.1495,1.1539,1.1476,1.1724,1.1729,1.1734,1.1752,1.176,1.1767,0,0,0,0,0,1.097,1.1039,1.104,1.1061,1.1175,1.1259,1.1274,1.13,1.1279,1.1315,1.1353,1.1353,1.1522,1.1486,1.1507,1.1553,1.1721,1.1728,1.1734,1.1748,1.1759,1.1767,0,0,0,0,0,0,1.0977,1.1049,1.105,1.1143,1.1195,1.126,1.1306,1.131,1.137,1.1367,1.1398,1.1414,1.1503,1.1537,1.1496,1.1649,1.1619,1.163,1.1623,1.1634,1.1641,1.1632,1.1482,0,0,0,0,0,1.0989,1.105,1.111,1.1186,1.1212,1.1255,1.1292,1.1308,1.1363,1.1386,1.143,1.1486,1.1552,1.1594,1.1658,1.1757,1.1774,1.1799,1.1807,1.1813,1.1822,1.188,1.1892,1.1757,1.1757,1.1757,0,0,1.1015,1.1062,1.1098,1.1189,1.1231,1.1295,1.1273,1.1341,1.139,1.1397,1.1484,1.1519,1.1583,1.1678,1.1722,1.1709,1.1864,1.1821,1.1825,1.1832,1.1887,1.19,1.1911,1.1761,1.176,1.176,0,0,1.1095,1.1136,1.1205,1.1248,1.1311,1.134,1.1356,1.1421,1.1444,1.1532,1.1539,1.1599,1.1711,1.1757,1.1795,1.1895,1.1898,1.1915,1.1956,1.2011,1.2022,1.2032,1.2069,1.2082,1.1924,1.1924,1.1924,0,1.112,1.1215,1.124,1.1309,1.1349,1.1357,1.1429,1.147,1.1552,1.158,1.1564,1.1706,1.175,1.1857,1.1882,1.1912,1.1933,1.1907,1.2018,1.2028,1.2038,1.2074,1.2088,1.1926,1.1925,1.1925,1.1925,0,1.1243,1.131,1.1358,1.1436,1.1482,1.1551,1.1589,1.1633,1.1645,1.1675,1.1767,1.1819,1.1895,1.1921,1.1934,1.2031,1.2021,1.2011,1.1982,1.2052,1.2086,1.21,1.1928,1.1927,1.1927,1.1926,0,0,1.1331,1.1423,1.144,1.1476,1.1548,1.1601,1.1672,1.1745,1.1783,1.184,1.1902,1.1997,1.1989,1.2032,1.205,1.2099,1.2177,1.2083,1.2085,1.21,1.229,1.2298,1.2313,1.2179,1.2182,1.2184,1.2285,0,1.142,1.1545,1.157,1.168,1.1742,1.1752,1.1815,1.1867,1.1898,1.1957,1.1992,1.206,1.2043,1.2069,1.2118,1.2157,1.2216,1.215,1.2239,1.2242,1.2224,1.2331,1.2339,1.2431,1.2298,1.2301,1.2302,0,1.1541,1.16,1.1715,1.178,1.1807,1.1863,1.1933,1.1988,1.2049,1.2068,1.2117,1.2131,1.2208,1.2174,1.2282,1.2237,1.2275,1.2301,1.2305,1.2315,1.2277,1.2345,1.2461,1.2476,1.2324,1.2322,1.232,0,1.1595,1.1703,1.1787,1.1817,1.1895,1.1934,1.1969,1.2027,1.2069,1.2131,1.216,1.223,1.2269,1.2324,1.2357,1.2329,1.2463,1.2432,1.2483,1.2482,1.2511,1.2509,1.2637,1.2534,1.2534,1.2533,1.2533,0,1.1693,1.1763,1.1812,1.1864,1.1944,1.1973,1.2053,1.2087,1.2139,1.2199,1.2212,1.2268,1.2308,1.2371,1.2397,1.2484,1.2501,1.252,1.2527,1.252,1.2518,1.2546,1.2541,1.2537,1.2536,1.2536,1.2535,0,1.1767,1.1802,1.1894,1.196,1.1979,1.2035,1.2093,1.2145,1.2176,1.2252,1.2272,1.2322,1.2397,1.2435,1.2528,1.2546,1.2644,1.2646,1.2623,1.2626,1.2675,1.2671,1.2826,1.2849,1.273,1.2731,1.2732,0,1.1827,1.1881,1.1954,1.1994,1.2029,1.2094,1.2138,1.217,1.2215,1.2289,1.2333,1.2408,1.2469,1.2589,1.2635,1.2707,1.2712,1.2762,1.2723,1.2715,1.2715,1.2711,1.2718,1.2769,1.277,1.2771,1.2771,0,1.1931,1.1946,1.2007,1.2076,1.2128,1.2183,1.2239,1.2272,1.2313,1.2364,1.244,1.2488,1.2583,1.2659,1.2734,1.2772,1.278,1.2783,1.2799,1.2793,1.2778,1.2788,1.2643,1.278,1.2779,1.2778,1.2778,1.2777,1.2001,1.205,1.2109,1.2178,1.2223,1.2275,1.2327,1.2365,1.2428,1.2507,1.2523,1.2604,1.2666,1.2768,1.2809,1.2874,1.2864,1.2887,1.2893,1.2898,1.2901,1.2767,1.2888,1.2888,1.2888,1.2888,1.2888,0,1.2106,1.2145,1.2208,1.2285,1.234,1.234,1.2402,1.2449,1.2519,1.2575,1.2636,1.2724,1.2798,1.285,1.2926,1.2968,1.2974,1.2987,1.2985,1.2994,1.2905,1.2884,1.2982,1.2982,1.2982,1.2982,1.2982,1.2982,1.2168,1.2252,1.2275,1.2383,1.2421,1.25,1.2535,1.2584,1.2629,1.2727,1.2788,1.2821,1.2876,1.2956,1.3025,1.3039,1.3066,1.308,1.3094,1.301,1.3,1.2991,1.2971,1.3085,1.3086,1.3178,1.3179,1.3179]},{"header":{"parameterUnit":"m.s-1","parameterCategory":1,"la1":30.2991,"la2":30.254,"lo1":-89.0895,"lo2":-89.0444,"dy":0.0017,"dx":0.0017,"nx":28,"ny":28,"refTime":"2024-05-14T09:00:00:Z","depth":0,"parameterNumber":3,"parameterNumberName":"V-component_of_WINDS"},"data":[0,0,0,0,0,0,0,0,0,0,0,0,0,0,0,0,0,0,0,0,0,0,0,0,0,0,0,0,0,0,0,0,0,0,0,0,0,0,0,0,0,0,0,0,0,0,0,0,0,0,0,0,0,0,0,0,0,0,0.7568,0.7571,0,0.7768,0.777,0.7772,0.7795,0.7793,0.7791,0.7789,0.7999,0.8006,0.8013,0,0,0,0,0,0,0,0,0,0,0,0,0,0.7212,0.7219,0.7568,0.7571,0.7573,0.7767,0.777,0.7773,0.7795,0.7793,0.779,0.7788,0.7996,0.8005,0.8014,0,0,0,0,0,0,0,0,0,0,0,0,0,0.7385,0.7221,0.7568,0.7607,0.7613,0.7767,0.777,0.7774,0.7796,0.7792,0.7789,0.7787,0.7993,0.8004,0.8015,0.8145,0,0,0.8049,0.8054,0,0,0,0,0,0,0,0,0.7375,0.7398,0.7599,0.7605,0.7611,0.7753,0.7722,0.7898,0.7796,0.7726,0.7789,0.7785,0.792,0.7937,0.7981,0.8155,0.8164,0.805,0.8057,0.8062,0.8065,0,0,0,0,0,0,0,0.7363,0.739,0.7647,0.7602,0.761,0.7617,0.7638,0.7755,0.7838,0.7732,0.7734,0.7757,0.7923,0.797,0.7986,0.8167,0.805,0.806,0.8067,0.8071,0.846,0.8463,0,0,0,0,0,0,0.7343,0.7379,0.7641,0.7653,0.7483,0.7626,0.765,0.7711,0.7837,0.7853,0.776,0.7758,0.7953,0.7973,0.7994,0.8156,0.8062,0.8072,0.8079,0.8456,0.846,0.8464,0,0,0,0,0,0,0.7335,0.7366,0.7633,0.7517,0.7552,0.7635,0.7704,0.7716,0.7764,0.7857,0.7873,0.7793,0.7951,0.7978,0.8107,0.8164,0.8077,0.8088,0.8452,0.8457,0.8462,0.8481,0,0,0,0,0,0,0.7325,0.7363,0.7412,0.7518,0.7558,0.7742,0.7707,0.7722,0.7783,0.7782,0.7892,0.7908,0.7951,0.809,0.8118,0.8178,0.8096,0.8447,0.8454,0.8461,0.8475,0.8486,0.8495,0,0,0,0,0,0.7312,0.741,0.7414,0.7446,0.762,0.7745,0.7768,0.7813,0.7787,0.7838,0.7898,0.7904,0.8152,0.8103,0.8135,0.8199,0.8444,0.8452,0.846,0.8471,0.8484,0.8495,0,0,0,0,0,0,0.731,0.7424,0.7431,0.7565,0.7645,0.7748,0.7814,0.7825,0.7916,0.7911,0.7966,0.799,0.8118,0.8171,0.8115,0.8332,0.8296,0.8311,0.8293,0.8306,0.8316,0.8302,0.8106,0,0,0,0,0,0.7325,0.7415,0.7511,0.762,0.766,0.773,0.7786,0.7814,0.79,0.7934,0.8003,0.8088,0.8185,0.8248,0.8342,0.8482,0.8508,0.8541,0.8551,0.8558,0.8572,0.8652,0.8669,0.8491,0.8491,0.8491,0,0,0.7358,0.7431,0.7485,0.7622,0.7687,0.7781,0.7758,0.7858,0.793,0.795,0.8077,0.813,0.8228,0.8364,0.8427,0.8412,0.8626,0.8569,0.8574,0.8584,0.8662,0.8679,0.8694,0.8496,0.8495,0.8495,0,0,0.7466,0.7529,0.7628,0.7694,0.7792,0.7838,0.7861,0.7963,0.8,0.8127,0.8145,0.8231,0.8396,0.8466,0.8523,0.8657,0.8668,0.8686,0.8739,0.8816,0.883,0.8843,0.8894,0.8911,0.8698,0.8698,0.8698,0,0.7495,0.7635,0.7678,0.7779,0.7839,0.7859,0.7962,0.8024,0.8149,0.8191,0.8171,0.838,0.8447,0.8601,0.8634,0.8678,0.8709,0.8675,0.8824,0.8838,0.885,0.89,0.8918,0.87,0.87,0.87,0.87,0,0.7667,0.7765,0.7833,0.7952,0.802,0.8121,0.8181,0.8245,0.8267,0.8316,0.8447,0.8527,0.864,0.8677,0.87,0.8835,0.8823,0.8813,0.8778,0.8868,0.8916,0.8935,0.8703,0.8702,0.8702,0.8701,0,0,0.7782,0.7922,0.7947,0.8002,0.8111,0.8189,0.8291,0.8399,0.8454,0.8539,0.8628,0.8768,0.8759,0.8824,0.8855,0.8922,0.9027,0.8905,0.8908,0.8928,0.9184,0.9193,0.9214,0.9033,0.9037,0.904,0.9177,0,0.7905,0.8086,0.8128,0.8285,0.8377,0.8397,0.8487,0.8565,0.8613,0.8699,0.8753,0.8852,0.8832,0.8871,0.8939,0.9,0.908,0.899,0.912,0.9124,0.9098,0.9238,0.9248,0.9374,0.9195,0.9199,0.9201,0,0.8073,0.816,0.8326,0.8425,0.8465,0.8544,0.8648,0.8729,0.8819,0.8849,0.8921,0.8945,0.9054,0.9011,0.9165,0.9103,0.9158,0.9196,0.9202,0.9219,0.917,0.9262,0.9415,0.9435,0.923,0.9227,0.9225,0,0.8144,0.8303,0.8423,0.8469,0.8586,0.8642,0.8694,0.878,0.8843,0.8933,0.8975,0.9077,0.9134,0.9213,0.9265,0.9229,0.9416,0.9376,0.9447,0.9446,0.9488,0.9485,0.9655,0.9518,0.9517,0.9517,0.9517,0,0.8279,0.838,0.8457,0.8531,0.8646,0.8693,0.8806,0.8858,0.8935,0.9022,0.9045,0.9126,0.9187,0.9278,0.9318,0.9441,0.9466,0.9496,0.9506,0.9496,0.9492,0.9535,0.9529,0.9522,0.9521,0.952,0.9519,0,0.8379,0.8433,0.8566,0.8666,0.8693,0.8774,0.886,0.8935,0.8982,0.9091,0.912,0.9196,0.9304,0.9362,0.9497,0.9524,0.9663,0.9666,0.9632,0.9637,0.9705,0.97,0.9912,0.9943,0.9781,0.9783,0.9784,0,0.8463,0.8541,0.8648,0.8707,0.876,0.8854,0.8918,0.8967,0.9033,0.9141,0.9203,0.9311,0.9401,0.9572,0.9641,0.9745,0.9754,0.9821,0.977,0.9757,0.9759,0.9755,0.9765,0.9831,0.9832,0.9834,0.9834,0,0.8607,0.863,0.872,0.882,0.8895,0.8977,0.9058,0.9105,0.9168,0.9241,0.9351,0.942,0.9557,0.9666,0.9775,0.9831,0.9845,0.9849,0.9872,0.9864,0.9842,0.9858,0.966,0.9845,0.9844,0.9843,0.9843,0.9842,0.8704,0.8776,0.8863,0.8963,0.9028,0.9103,0.9178,0.9235,0.9326,0.9441,0.9465,0.9581,0.967,0.9818,0.9877,0.997,0.9957,0.9989,0.9998,1.0006,1.001,0.9824,0.999,0.9989,0.9989,0.9989,0.9989,0,0.8853,0.891,0.9001,0.9113,0.9192,0.9195,0.9284,0.9352,0.9453,0.9534,0.9621,0.9748,0.9853,0.9929,1.0037,1.0097,1.0107,1.0125,1.0123,1.0136,1.0014,0.9985,1.0115,1.0115,1.0115,1.0115,1.0115,1.0115,0.894,0.9062,0.9095,0.925,0.9307,0.942,0.9471,0.9542,0.9607,0.9746,0.9833,0.9881,0.9962,1.0075,1.0173,1.0193,1.0233,1.0251,1.0272,1.0157,1.0144,1.0131,1.0105,1.0258,1.0259,1.0387,1.0388,1.0389]}]]